Time,TemperatureF,DewpointF,PressureIn,WindDirection,WindDirectionDegrees,WindSpeedMPH,WindSpeedGustMPH,Humidity,HourlyPrecipIn,Conditions,Clouds,dailyrainin,SoftwareType,DateUTC
2013-05-21 00:02:00,63.0,58.0,29.79,North,-999,-999.0,-999.0,84,-99.99,,,-99.99,,2013-05-21 05:02:00,
2013-05-21 00:12:00,63.0,58.0,29.78,North,-999,-999.0,-999.0,83,-99.99,,,-99.99,,2013-05-21 05:12:00,
2013-05-21 00:22:00,63.0,58.0,29.78,North,-999,-999.0,-999.0,83,-99.99,,,-99.99,,2013-05-21 05:22:00,
2013-05-21 00:32:00,63.0,58.0,29.78,North,-999,-999.0,-999.0,84,-99.99,,,-99.99,,2013-05-21 05:32:00,
2013-05-21 00:42:00,63.0,58.0,29.78,North,-999,-999.0,-999.0,84,-99.99,,,-99.99,,2013-05-21 05:42:00,
2013-05-21 00:51:00,62.0,58.0,29.79,North,-999,-999.0,-999.0,84,-99.99,,,-99.99,,2013-05-21 05:51:00,
2013-05-21 01:02:00,62.0,58.0,29.79,North,-999,-999.0,-999.0,84,-99.99,,,-99.99,,2013-05-21 06:02:00,
2013-05-21 01:12:00,62.0,57.0,29.79,North,-999,-999.0,-999.0,83,-99.99,,,-99.99,,2013-05-21 06:12:00,
2013-05-21 01:21:00,63.0,57.0,29.78,North,-999,-999.0,-999.0,82,-99.99,,,-99.99,,2013-05-21 06:21:00,
2013-05-21 01:32:00,63.0,57.0,29.78,North,-999,-999.0,-999.0,82,-99.99,,,-99.99,,2013-05-21 06:32:00,
2013-05-21 01:42:00,63.0,57.0,29.78,North,-999,-999.0,-999.0,81,-99.99,,,-99.99,,2013-05-21 06:42:00,
2013-05-21 01:52:00,63.0,57.0,29.78,North,-999,-999.0,-999.0,81,-99.99,,,-99.99,,2013-05-21 06:52:00,
2013-05-21 02:00:00,63.0,57.0,29.76,North,-999,-999.0,-999.0,81,-99.99,,,-99.99,,2013-05-21 07:00:00,
2013-05-21 02:01:00,63.0,57.0,29.78,North,-999,-999.0,-999.0,81,-99.99,,,-99.99,,2013-05-21 07:01:00,
2013-05-21 02:11:00,63.0,57.0,29.77,North,-999,-999.0,-999.0,81,-99.99,,,-99.99,,2013-05-21 07:11:00,
2013-05-21 02:22:00,63.0,57.0,29.76,North,-999,-999.0,-999.0,81,-99.99,,,-99.99,,2013-05-21 07:22:00,
2013-05-21 02:31:00,63.0,57.0,29.76,North,-999,-999.0,-999.0,81,-99.99,,,-99.99,,2013-05-21 07:31:00,
2013-05-21 02:41:00,63.0,57.0,29.76,North,-999,-999.0,-999.0,81,-99.99,,,-99.99,,2013-05-21 07:41:00,
2013-05-21 02:52:00,63.0,57.0,29.76,North,-999,-999.0,-999.0,81,-99.99,,,-99.99,,2013-05-21 07:52:00,
2013-05-21 03:42:00,62.0,56.0,29.75,North,-999,-999.0,-999.0,81,-99.99,,,-99.99,,2013-05-21 08:42:00,
2013-05-21 03:52:00,62.0,56.0,29.75,North,-999,-999.0,-999.0,81,-99.99,,,-99.99,,2013-05-21 08:52:00,
2013-05-21 04:01:00,62.0,56.0,29.76,North,-999,-999.0,-999.0,81,-99.99,,,-99.99,,2013-05-21 09:01:00,
2013-05-21 04:11:00,62.0,56.0,29.77,North,-999,-999.0,-999.0,81,-99.99,,,-99.99,,2013-05-21 09:11:00,
2013-05-21 04:21:00,62.0,56.0,29.77,North,-999,-999.0,-999.0,81,-99.99,,,-99.99,,2013-05-21 09:21:00,
2013-05-21 04:32:00,62.0,56.0,29.78,North,-999,-999.0,-999.0,81,-99.99,,,-99.99,,2013-05-21 09:32:00,
2013-05-21 04:42:00,62.0,56.0,29.78,North,-999,-999.0,-999.0,81,-99.99,,,-99.99,,2013-05-21 09:42:00,
2013-05-21 04:52:00,62.0,56.0,29.80,North,-999,-999.0,-999.0,82,-99.99,,,-99.99,,2013-05-21 09:52:00,
2013-05-21 05:02:00,62.0,56.0,29.80,North,-999,-999.0,-999.0,82,-99.99,,,-99.99,,2013-05-21 10:02:00,
2013-05-21 05:12:00,62.0,56.0,29.79,North,-999,-999.0,-999.0,82,-99.99,,,-99.99,,2013-05-21 10:12:00,
2013-05-21 05:22:00,62.0,56.0,29.79,North,-999,-999.0,-999.0,82,-99.99,,,-99.99,,2013-05-21 10:22:00,
2013-05-21 05:32:00,62.0,56.0,29.79,North,-999,-999.0,-999.0,82,-99.99,,,-99.99,,2013-05-21 10:32:00,
2013-05-21 05:42:00,62.0,56.0,29.80,North,-999,-999.0,-999.0,82,-99.99,,,-99.99,,2013-05-21 10:42:00,
2013-05-21 05:52:00,62.0,56.0,29.80,North,-999,-999.0,-999.0,82,-99.99,,,-99.99,,2013-05-21 10:52:00,
2013-05-21 06:02:00,62.0,56.0,29.80,North,-999,-999.0,-999.0,83,-99.99,,,-99.99,,2013-05-21 11:02:00,
2013-05-21 06:12:00,62.0,56.0,29.81,North,-999,-999.0,-999.0,83,-99.99,,,-99.99,,2013-05-21 11:12:00,
2013-05-21 06:21:00,62.0,56.0,29.81,North,-999,-999.0,-999.0,83,-99.99,,,-99.99,,2013-05-21 11:21:00,
2013-05-21 06:32:00,62.0,56.0,29.80,North,-999,-999.0,-999.0,82,-99.99,,,-99.99,,2013-05-21 11:32:00,
2013-05-21 06:41:00,62.0,56.0,29.79,North,-999,-999.0,-999.0,81,-99.99,,,-99.99,,2013-05-21 11:41:00,
2013-05-21 06:51:00,62.0,56.0,29.79,North,-999,-999.0,-999.0,81,-99.99,,,-99.99,,2013-05-21 11:51:00,
2013-05-21 07:01:00,62.0,56.0,29.80,North,-999,-999.0,-999.0,81,-99.99,,,-99.99,,2013-05-21 12:01:00,
2013-05-21 07:11:00,62.0,56.0,29.81,North,-999,-999.0,-999.0,81,-99.99,,,-99.99,,2013-05-21 12:11:00,
2013-05-21 07:21:00,62.0,56.0,29.81,North,-999,-999.0,-999.0,81,-99.99,,,-99.99,,2013-05-21 12:21:00,
2013-05-21 07:32:00,62.0,56.0,29.80,North,-999,-999.0,-999.0,80,-99.99,,,-99.99,,2013-05-21 12:32:00,
2013-05-21 07:42:00,63.0,56.0,29.80,North,-999,-999.0,-999.0,80,-99.99,,,-99.99,,2013-05-21 12:42:00,
2013-05-21 07:51:00,63.0,56.0,29.80,North,-999,-999.0,-999.0,80,-99.99,,,-99.99,,2013-05-21 12:51:00,
2013-05-21 08:01:00,63.0,57.0,29.81,North,-999,-999.0,-999.0,81,-99.99,,,-99.99,,2013-05-21 13:01:00,
2013-05-21 08:12:00,63.0,57.0,29.82,North,-999,-999.0,-999.0,82,-99.99,,,-99.99,,2013-05-21 13:12:00,
2013-05-21 08:22:00,63.0,57.0,29.82,North,-999,-999.0,-999.0,82,-99.99,,,-99.99,,2013-05-21 13:22:00,
2013-05-21 08:32:00,63.0,58.0,29.82,North,-999,-999.0,-999.0,82,-99.99,,,-99.99,,2013-05-21 13:32:00,
2013-05-21 08:41:00,63.0,58.0,29.82,North,-999,-999.0,-999.0,82,-99.99,,,-99.99,,2013-05-21 13:41:00,
2013-05-21 08:52:00,63.0,58.0,29.82,North,-999,-999.0,-999.0,82,-99.99,,,-99.99,,2013-05-21 13:52:00,
2013-05-21 09:00:00,65.0,59.0,29.83,North,-999,-999.0,-999.0,82,-99.99,,,-99.99,,2013-05-21 14:00:00,
2013-05-21 09:01:00,64.0,58.0,29.82,North,-999,-999.0,-999.0,81,-99.99,,,-99.99,,2013-05-21 14:01:00,
2013-05-21 09:11:00,65.0,58.0,29.82,North,-999,-999.0,-999.0,80,-99.99,,,-99.99,,2013-05-21 14:11:00,
2013-05-21 09:21:00,65.0,58.0,29.82,North,-999,-999.0,-999.0,80,-99.99,,,-99.99,,2013-05-21 14:21:00,
2013-05-21 09:30:00,66.0,60.0,29.82,North,-999,-999.0,-999.0,81,-99.99,,,-99.99,,2013-05-21 14:30:00,
2013-05-21 09:32:00,65.0,59.0,29.82,North,-999,-999.0,-999.0,81,-99.99,,,-99.99,,2013-05-21 14:32:00,
2013-05-21 09:41:00,65.0,59.0,29.83,North,-999,-999.0,-999.0,82,-99.99,,,-99.99,,2013-05-21 14:41:00,
2013-05-21 09:51:00,65.0,59.0,29.83,North,-999,-999.0,-999.0,82,-99.99,,,-99.99,,2013-05-21 14:51:00,
2013-05-21 10:00:00,69.0,60.0,29.81,North,-999,-999.0,-999.0,75,-99.99,,,-99.99,,2013-05-21 15:00:00,
2013-05-21 10:11:00,66.0,60.0,29.82,North,-999,-999.0,-999.0,81,-99.99,,,-99.99,,2013-05-21 15:11:00,
2013-05-21 10:21:00,66.0,60.0,29.82,North,-999,-999.0,-999.0,81,-99.99,,,-99.99,,2013-05-21 15:21:00,
2013-05-21 10:42:00,69.0,60.0,29.81,North,-999,-999.0,-999.0,75,-99.99,,,-99.99,,2013-05-21 15:42:00,
2013-05-21 10:53:00,69.0,60.0,29.81,North,-999,-999.0,-999.0,75,-99.99,,,-99.99,,2013-05-21 15:53:00,
2013-05-21 11:00:00,69.0,61.0,29.84,North,-999,-999.0,-999.0,76,-99.99,,,-99.99,,2013-05-21 16:00:00,
2013-05-21 11:13:00,69.0,60.0,29.84,North,-999,-999.0,-999.0,74,-99.99,,,-99.99,,2013-05-21 16:13:00,
2013-05-21 11:23:00,69.0,60.0,29.84,North,-999,-999.0,-999.0,74,-99.99,,,-99.99,,2013-05-21 16:23:00,
2013-05-21 11:32:00,69.0,61.0,29.84,North,-999,-999.0,-999.0,75,-99.99,,,-99.99,,2013-05-21 16:32:00,
2013-05-21 11:42:00,69.0,61.0,29.84,North,-999,-999.0,-999.0,76,-99.99,,,-99.99,,2013-05-21 16:42:00,
2013-05-21 11:52:00,69.0,61.0,29.84,North,-999,-999.0,-999.0,76,-99.99,,,-99.99,,2013-05-21 16:52:00,
2013-05-21 12:12:00,70.0,61.0,29.82,North,-999,-999.0,-999.0,72,-99.99,,,-99.99,,2013-05-21 17:12:00,
2013-05-21 12:23:00,70.0,61.0,29.82,North,-999,-999.0,-999.0,72,-99.99,,,-99.99,,2013-05-21 17:23:00,
2013-05-21 12:32:00,70.0,59.0,29.79,North,-999,-999.0,-999.0,70,-99.99,,,-99.99,,2013-05-21 17:32:00,
2013-05-21 12:43:00,69.0,60.0,29.80,North,-999,-999.0,-999.0,72,-99.99,,,-99.99,,2013-05-21 17:43:00,
2013-05-21 12:52:00,68.0,59.0,29.81,North,-999,-999.0,-999.0,73,-99.99,,,-99.99,,2013-05-21 17:52:00,
2013-05-21 13:02:00,68.0,59.0,29.81,North,-999,-999.0,-999.0,73,-99.99,,,-99.99,,2013-05-21 18:02:00,
2013-05-21 13:12:00,68.0,60.0,29.83,North,-999,-999.0,-999.0,75,-99.99,,,-99.99,,2013-05-21 18:12:00,
2013-05-21 13:22:00,67.0,59.0,29.83,North,-999,-999.0,-999.0,75,-99.99,,,-99.99,,2013-05-21 18:22:00,
2013-05-21 13:32:00,67.0,59.0,29.83,North,-999,-999.0,-999.0,75,-99.99,,,-99.99,,2013-05-21 18:32:00,
2013-05-21 13:42:00,67.0,58.0,29.82,North,-999,-999.0,-999.0,74,-99.99,,,-99.99,,2013-05-21 18:42:00,
2013-05-21 13:51:00,67.0,59.0,29.86,North,-999,-999.0,-999.0,75,-99.99,,,-99.99,,2013-05-21 18:51:00,
2013-05-21 14:01:00,67.0,59.0,29.86,North,-999,-999.0,-999.0,75,-99.99,,,-99.99,,2013-05-21 19:01:00,
2013-05-21 14:11:00,66.0,59.0,29.85,North,-999,-999.0,-999.0,78,-99.99,,,-99.99,,2013-05-21 19:11:00,
2013-05-21 14:21:00,66.0,58.0,29.85,North,-999,-999.0,-999.0,77,-99.99,,,-99.99,,2013-05-21 19:21:00,
2013-05-21 14:32:00,66.0,58.0,29.85,North,-999,-999.0,-999.0,77,-99.99,,,-99.99,,2013-05-21 19:32:00,
2013-05-21 14:42:00,66.0,58.0,29.85,North,-999,-999.0,-999.0,76,-99.99,,,-99.99,,2013-05-21 19:42:00,
2013-05-21 14:52:00,66.0,57.0,29.83,North,-999,-999.0,-999.0,73,-99.99,,,-99.99,,2013-05-21 19:52:00,
2013-05-21 15:03:00,66.0,57.0,29.83,North,-999,-999.0,-999.0,73,-99.99,,,-99.99,,2013-05-21 20:03:00,
2013-05-21 15:11:00,66.0,57.0,29.82,North,-999,-999.0,-999.0,74,-99.99,,,-99.99,,2013-05-21 20:11:00,
2013-05-21 15:22:00,66.0,57.0,29.78,North,-999,-999.0,-999.0,74,-99.99,,,-99.99,,2013-05-21 20:22:00,
2013-05-21 15:32:00,66.0,58.0,29.76,North,-999,-999.0,-999.0,76,-99.99,,,-99.99,,2013-05-21 20:32:00,
2013-05-21 15:42:00,66.0,58.0,29.76,North,-999,-999.0,-999.0,76,-99.99,,,-99.99,,2013-05-21 20:42:00,
2013-05-21 15:52:00,66.0,58.0,29.75,North,-999,-999.0,-999.0,74,-99.99,,,-99.99,,2013-05-21 20:52:00,
2013-05-21 16:02:00,66.0,58.0,29.75,North,-999,-999.0,-999.0,74,-99.99,,,-99.99,,2013-05-21 21:02:00,
2013-05-21 16:11:00,67.0,58.0,29.75,North,-999,-999.0,-999.0,73,-99.99,,,-99.99,,2013-05-21 21:11:00,
2013-05-21 16:21:00,67.0,58.0,29.79,North,-999,-999.0,-999.0,73,-99.99,,,-99.99,,2013-05-21 21:21:00,
2013-05-21 16:33:00,67.0,58.0,29.79,North,-999,-999.0,-999.0,73,-99.99,,,-99.99,,2013-05-21 21:33:00,
2013-05-21 16:43:00,68.0,59.0,29.79,North,-999,-999.0,-999.0,71,-99.99,,,-99.99,,2013-05-21 21:43:00,
2013-05-21 16:53:00,69.0,58.0,29.79,North,-999,-999.0,-999.0,68,-99.99,,,-99.99,,2013-05-21 21:53:00,
2013-05-21 17:02:00,69.0,58.0,29.79,North,-999,-999.0,-999.0,68,-99.99,,,-99.99,,2013-05-21 22:02:00,
2013-05-21 17:12:00,70.0,60.0,29.78,North,-999,-999.0,-999.0,71,-99.99,,,-99.99,,2013-05-21 22:12:00,
2013-05-21 17:22:00,71.0,60.0,29.77,North,-999,-999.0,-999.0,68,-99.99,,,-99.99,,2013-05-21 22:22:00,
2013-05-21 17:33:00,71.0,59.0,29.78,North,-999,-999.0,-999.0,66,-99.99,,,-99.99,,2013-05-21 22:33:00,
2013-05-21 17:42:00,71.0,59.0,29.78,North,-999,-999.0,-999.0,66,-99.99,,,-99.99,,2013-05-21 22:42:00,
2013-05-21 17:52:00,69.0,58.0,29.79,North,-999,-999.0,-999.0,69,-99.99,,,-99.99,,2013-05-21 22:52:00,
2013-05-21 18:02:00,69.0,58.0,29.79,North,-999,-999.0,-999.0,69,-99.99,,,-99.99,,2013-05-21 23:02:00,
2013-05-21 18:12:00,69.0,59.0,29.79,North,-999,-999.0,-999.0,71,-99.99,,,-99.99,,2013-05-21 23:12:00,
2013-05-21 18:22:00,68.0,57.0,29.80,North,-999,-999.0,-999.0,69,-99.99,,,-99.99,,2013-05-21 23:22:00,
2013-05-21 18:32:00,68.0,57.0,29.80,North,-999,-999.0,-999.0,69,-99.99,,,-99.99,,2013-05-21 23:32:00,
2013-05-21 18:42:00,68.0,58.0,29.79,North,-999,-999.0,-999.0,70,-99.99,,,-99.99,,2013-05-21 23:42:00,
2013-05-21 18:52:00,67.0,57.0,29.78,North,-999,-999.0,-999.0,72,-99.99,,,-99.99,,2013-05-21 23:52:00,
2013-05-21 19:01:00,67.0,57.0,29.78,North,-999,-999.0,-999.0,72,-99.99,,,-99.99,,2013-05-22 00:01:00,
2013-05-21 19:11:00,66.0,57.0,29.77,North,-999,-999.0,-999.0,73,-99.99,,,-99.99,,2013-05-22 00:11:00,
2013-05-21 19:21:00,66.0,58.0,29.75,North,-999,-999.0,-999.0,75,-99.99,,,-99.99,,2013-05-22 00:21:00,
2013-05-21 19:32:00,66.0,58.0,29.75,North,-999,-999.0,-999.0,75,-99.99,,,-99.99,,2013-05-22 00:32:00,
2013-05-21 19:41:00,66.0,58.0,29.75,North,-999,-999.0,-999.0,75,-99.99,,,-99.99,,2013-05-22 00:41:00,
2013-05-21 19:51:00,65.0,57.0,29.71,North,-999,-999.0,-999.0,73,-99.99,,,-99.99,,2013-05-22 00:51:00,
2013-05-21 20:01:00,65.0,57.0,29.71,North,-999,-999.0,-999.0,73,-99.99,,,-99.99,,2013-05-22 01:01:00,
2013-05-21 20:11:00,65.0,56.0,29.70,North,-999,-999.0,-999.0,72,-99.99,,,-99.99,,2013-05-22 01:11:00,
2013-05-21 20:21:00,65.0,55.0,29.66,North,-999,-999.0,-999.0,72,-99.99,,,-99.99,,2013-05-22 01:21:00,
2013-05-21 20:32:00,65.0,55.0,29.64,North,-999,-999.0,-999.0,70,-99.99,,,-99.99,,2013-05-22 01:32:00,
2013-05-21 20:42:00,65.0,55.0,29.64,North,-999,-999.0,-999.0,70,-99.99,,,-99.99,,2013-05-22 01:42:00,
2013-05-21 20:52:00,65.0,53.0,29.62,North,-999,-999.0,-999.0,66,-99.99,,,-99.99,,2013-05-22 01:52:00,
2013-05-21 21:01:00,65.0,53.0,29.62,North,-999,-999.0,-999.0,66,-99.99,,,-99.99,,2013-05-22 02:01:00,
2013-05-21 21:11:00,65.0,53.0,29.60,North,-999,-999.0,-999.0,65,-99.99,,,-99.99,,2013-05-22 02:11:00,
2013-05-21 21:21:00,65.0,53.0,29.68,North,-999,-999.0,-999.0,65,-99.99,,,-99.99,,2013-05-22 02:21:00,
2013-05-21 21:32:00,65.0,53.0,29.69,North,-999,-999.0,-999.0,64,-99.99,,,-99.99,,2013-05-22 02:32:00,
2013-05-21 21:42:00,65.0,53.0,29.69,North,-999,-999.0,-999.0,64,-99.99,,,-99.99,,2013-05-22 02:42:00,
2013-05-21 21:51:00,65.0,53.0,29.71,North,-999,-999.0,-999.0,67,-99.99,,,-99.99,,2013-05-22 02:51:00,
2013-05-21 22:01:00,65.0,53.0,29.71,North,-999,-999.0,-999.0,67,-99.99,,,-99.99,,2013-05-22 03:01:00,
2013-05-21 22:11:00,64.0,54.0,29.73,North,-999,-999.0,-999.0,70,-99.99,,,-99.99,,2013-05-22 03:11:00,
2013-05-21 22:21:00,63.0,55.0,29.74,North,-999,-999.0,-999.0,74,-99.99,,,-99.99,,2013-05-22 03:21:00,
2013-05-21 22:33:00,63.0,55.0,29.74,North,-999,-999.0,-999.0,74,-99.99,,,-99.99,,2013-05-22 03:33:00,
2013-05-21 22:43:00,63.0,55.0,29.75,North,-999,-999.0,-999.0,75,-99.99,,,-99.99,,2013-05-22 03:43:00,
2013-05-21 22:53:00,61.0,55.0,29.76,North,-999,-999.0,-999.0,79,-99.99,,,-99.99,,2013-05-22 03:53:00,
2013-05-21 23:03:00,61.0,55.0,29.76,North,-999,-999.0,-999.0,79,-99.99,,,-99.99,,2013-05-22 04:03:00,
2013-05-21 23:13:00,61.0,55.0,29.76,North,-999,-999.0,-999.0,81,-99.99,,,-99.99,,2013-05-22 04:13:00,
2013-05-21 23:23:00,60.0,55.0,29.76,North,-999,-999.0,-999.0,84,-99.99,,,-99.99,,2013-05-22 04:23:00,
2013-05-21 23:33:00,60.0,55.0,29.76,North,-999,-999.0,-999.0,84,-99.99,,,-99.99,,2013-05-22 04:33:00,
2013-05-21 23:43:00,59.0,55.0,29.77,North,-999,-999.0,-999.0,85,-99.99,,,-99.99,,2013-05-22 04:43:00,
2013-05-21 23:53:00,59.0,56.0,29.77,North,-999,-999.0,-999.0,88,-99.99,,,-99.99,,2013-05-22 04:53:00,